Location: ????????
(56.1167°N, 38.6333°E)
Time: 11:14:03
(UTC+00:00)

Cosmos 2151 Rocket - Pass Details

Date: 18 November 2025
Orbit: 612 x 636 km, 82.5° (Epoch: 09 December)

Event Time Altitude Azimuth Distance (km) Brightness Sun altitude
Rises 16:18:47 0° 205° (SSW) 2,925 7.3 -25.4°
Reaches altitude 10° 16:21:04 10° 210° (SSW) 2,023 6.5 -25.8°
Maximum altitude 16:25:28 52° 288° (WNW) 796 4.3 -26.4°
Enters shadow 16:27:46 26° 353° (N) 1,266 5.2 -26.7°
